Location: Parchey Bridge, Chedzoy
(51.1354°N, 2.9289°W)
Time: 21:47:50
(UTC+01:00)

ISS - Visible Passes

Search period start: 21 May 2018 00:00
Search period end: 31 May 2018 00:00
Orbit: 402 x 407 km, 51.6° (Epoch: 22 May)

Date Brightness Start Highest point End Pass type
(mag) Time Alt. Az. Time Alt. Az. Time Alt. Az.
21 May -3.8 01:19:40 10° W 01:22:58 80° N 01:26:14 10° E visible
21 May -4.0 02:56:12 10° W 02:59:28 68° SSW 03:02:43 10° ESE visible
21 May -3.4 22:51:22 10° SW 22:54:25 37° SSE 22:57:29 10° E visible
22 May -3.9 00:27:28 10° W 00:30:45 86° N 00:34:02 10° E visible
22 May -4.0 02:04:01 10° W 02:07:18 86° S 02:10:35 10° ESE visible
22 May -3.0 03:40:40 10° W 03:43:33 29° SSW 03:46:26 10° SSE visible
22 May -2.8 21:59:36 10° SSW 22:02:22 25° SSE 22:05:08 10° E visible
22 May -4.0 23:35:17 10° WSW 23:38:33 80° SSE 23:41:51 10° E visible
23 May -3.9 01:11:49 10° W 01:15:05 83° N 01:18:23 10° E visible
23 May -3.6 02:48:21 10° W 02:51:29 43° SSW 02:54:36 10° SE visible
23 May -1.8 04:26:36 10° SW 04:27:19 11° SW 04:28:02 10° SSW visible
23 May -3.9 22:43:09 10° WSW 22:46:23 61° SSE 22:49:38 10° E visible
24 May -3.8 00:19:35 10° W 00:22:52 79° N 00:26:08 10° E visible
24 May -3.9 01:56:06 10° W 01:59:21 61° SSW 02:00:17 40° SE visible
24 May -3.5 21:51:07 10° SW 21:54:14 43° SSE 21:57:22 10° E visible
24 May -3.8 23:27:20 10° W 23:30:37 83° N 23:33:54 10° E visible
25 May -4.0 01:03:53 10° W 01:07:09 80° SSW 01:08:15 39° ESE visible
25 May -1.4 02:40:35 10° W 02:40:50 11° W 02:40:50 11° W visible
25 May -3.9 22:35:06 10° WSW 22:38:23 86° S 22:41:40 10° E visible
26 May -3.9 00:11:38 10° W 00:14:55 86° N 00:17:10 19° E visible
26 May -2.3 01:48:12 10° W 01:49:46 23° W 01:49:46 23° W visible
26 May -3.8 23:19:23 10° W 23:22:40 80° N 23:25:57 10° E visible
27 May -3.7 00:55:54 10° W 00:58:56 53° SW 00:58:56 53° SW visible
27 May -3.7 22:27:06 10° W 22:30:23 81° N 22:33:39 10° E visible
28 May -4.0 00:03:37 10° W 00:06:54 74° SSW 00:08:11 34° ESE visible
28 May -1.3 01:40:25 10° W 01:40:48 12° W 01:40:48 12° W visible
28 May -3.9 23:11:21 10° W 23:14:38 90° ESE 23:17:29 13° E visible
29 May -2.6 00:47:56 10° W 00:50:06 28° WSW 00:50:06 28° WSW visible
29 May -3.7 22:19:03 10° W 22:22:21 81° N 22:25:38 10° E visible
29 May -3.6 23:55:34 10° W 23:58:45 48° SSW 23:59:27 40° SSE visible
30 May -3.9 23:03:15 10° W 23:06:31 67° SSW 23:08:48 18° ESE visible
